Location: Recife
(8.0585°S, 34.8848°W)
Time: 12:37:58
(UTC-03:00)

Vanguard 1 - Pass Details

Date: 23 April 2026
Orbit: 654 x 3817 km, 34.3° (Epoch: 11 May)

Event Time Altitude Azimuth Distance (km) Brightness Sun altitude
Rises 02:14:43 0° 328° (NNW) 7,567 14.4 -46.3°
Reaches altitude 10° 02:23:54 10° 347° (NNW) 5,960 14.0 -44.1°
Maximum altitude 02:32:43 16° 18° (NNE) 4,708 13.7 -41.9°
Drops below altitude 10° 02:39:28 10° 51° (NE) 4,445 13.9 -40.3°
Sets 02:44:23 0° 72° (ENE) 4,856 14.5 -39.1°
